Location: *
(51.5000°N, 0.1100°W)
Time: 17:38:33
(UTC+00:00)

SL-19 R/B - Pass Details

Date: 25 May 2024
Orbit: 345 x 674 km, 99.4° (Epoch: 16 June)

Event Time Altitude Azimuth Distance (km) Brightness Sun altitude
Rises 00:55:11 0° 16° (NNE) 2,916 9.9 -16.4°
Reaches altitude 10° 00:57:29 10° 16° (NNE) 1,959 8.5 -16.3°
Maximum altitude 01:01:44 90° 13° (NNE) 568 4.3 -16.1°
Enters shadow 01:03:28 33° 198° (SSW) 933 4.9 -16.1°
